sat.trackr.live / text

‹ back to catalog

STARLINK-35893

NORAD 66565 · 2025-268J

PAYLOAD ACTIVE UNKNOWN

§ Identity

Operator
Country
US
Launch date
2025-11-21
Launch site
AFETR
Launch vehicle
Mass (kg)
RCS (m²)

Purposes: comms

External: N2YO · Heavens-Above · Gunter

§ Orbital elements

Epoch: 2026-05-24T19:25:36.212160Z

Period
94.27 min
Inclination
43.0001°
Eccentricity
0.0001280
Mean motion
15.27580301 rev/d
Perigee alt
482.2 km
Apogee alt
483.9 km
Semi-major
6,861.2 km
B*
5.9688e-4
RAAN
276.9753°
Arg perigee
277.8299°
Mean anomaly
82.2407°
Rev number
2,960

§ Raw data

STARLINK-358931 66565U 25268J   26144.80944690  .00016199  00000+0  59688-3 0  99922 66565  43.0001 276.9753 0001280 277.8299  82.2407 15.27580301 29604

JSON: /api/v1/satellites/66565 · /tle

For live sub-satellite position, see the globe view (requires WebGL).

§ Visibility from observer

Set your observer location to see the next 7 days of passes ≥ 10°. The values pass through the URL so the page stays shareable.

No JS? Fill the form by hand. The geolocation button needs JavaScript.